Location: Bazugues
(43.4465°N, 0.3432°E)
Time: 14:52:03
(UTC+00:00)

Resurs 1-3 - Pass Details

Date: 12 January 2026
Orbit: 612 x 615 km, 97.7° (Epoch: 18 February)

Event Time Altitude Azimuth Distance (km) Brightness Sun altitude
Rises 18:20:28 0° 165° (SSE) 2,871 7.0 -17.0°
Reaches altitude 10° 18:22:38 10° 165° (SSE) 1,971 6.1 -17.4°
Maximum altitude 18:26:56 87° 78° (ENE) 623 3.4 -18.1°
Drops below altitude 10° 18:31:15 10° 348° (NNW) 1,987 6.1 -18.9°
Sets 18:33:27 0° 348° (NNW) 2,896 7.0 -19.3°
